Location: B�retswil
(47.3376°N, 8.8534°E)
Time: 09:19:12
(UTC+00:00)

Cosmos 2369 Rocket - Visible Passes

Search period start: 16 June 2021 00:00
Search period end: 26 June 2021 00:00
Orbit: 827 x 854 km, 71.0° (Epoch: 15 June)

Date Brightness Start Highest point End Pass type
(mag) Time Alt. Az. Time Alt. Az. Time Alt. Az.
16 Jun 2.6 01:32:07 10° NW 01:37:33 45° WSW 01:42:12 14° S visible
16 Jun 3.7 23:32:48 10° NNW 23:37:58 33° NE 23:43:07 10° ESE visible
17 Jun 2.5 01:16:42 10° NW 01:22:10 48° WSW 01:26:12 18° S visible
17 Jun 3.7 23:17:27 10° NNW 23:22:34 32° NE 23:27:38 10° ESE visible
18 Jun 2.5 01:01:18 10° NW 01:06:50 50° WSW 01:10:21 22° S visible
18 Jun 3.8 23:02:05 10° NNW 23:07:09 31° NE 23:12:10 10° ESE visible
19 Jun 2.4 00:45:54 10° NW 00:51:28 53° WSW 00:54:37 25° S visible
19 Jun 3.8 22:46:45 10° NNW 22:51:44 30° NE 22:56:41 10° ESE visible
20 Jun 2.4 00:30:31 10° NW 00:36:07 56° WSW 00:38:58 28° S visible
20 Jun 3.9 22:31:24 10° N 22:36:19 28° NE 22:41:12 10° ESE visible
21 Jun 2.3 00:15:07 10° NNW 00:20:45 59° WSW 00:23:24 31° S visible
21 Jun 3.9 22:16:04 10° N 22:20:54 27° NE 22:25:43 10° ESE visible
21 Jun 2.3 23:59:43 10° NNW 00:05:23 63° WSW 00:07:54 33° S visible
22 Jun 3.9 22:00:43 10° N 22:05:30 26° NE 22:10:13 10° ESE visible
22 Jun 2.2 23:44:19 10° NNW 23:50:01 66° WSW 23:52:28 34° S visible
23 Jun 3.9 21:45:23 10° N 21:50:04 25° NE 21:54:44 10° E visible
23 Jun 2.2 23:28:57 10° NNW 23:34:39 70° WSW 23:37:04 35° S visible
24 Jun 4.2 01:16:26 10° W 01:17:34 11° W 01:18:43 10° WSW visible
24 Jun 4.0 21:30:03 10° N 21:34:39 24° NE 21:39:13 10° E visible
24 Jun 2.2 23:13:34 10° NNW 23:19:17 73° WSW 23:21:44 35° S visible
25 Jun 4.2 01:00:31 10° WNW 01:02:16 11° W 01:03:29 11° WSW visible
25 Jun 4.0 21:14:43 10° N 21:19:14 23° NE 21:23:43 10° E visible
25 Jun 2.2 22:58:11 10° NNW 23:03:55 77° WSW 23:06:26 35° SSE visible
